DELTA 1 DEB, 40755

Orbit data source: Space-Track

DELTA 1 DEB, 40755 is space debris in SSO originally from a launch on Thu, 29 Jul 1976 UTC launched from the Air Force Western Test Range (AFWTR). Debris objects in space refer to the collection of defunct objects orbiting the Earth. Examples of debris include non-operational satellites, rocket bodies, and fragments generated from explosions, collisions, or faulty payload assembly.

Loading next visibility...
Identifier
40755, 1976-077FY
Orbit
SSO
Country
Flag of USUS
Related business
Manufacturer
Unknown
Mission
Spacecraft
Bus & Motor
Unknown
Mass
Unknown
Launch date (UTC)
1976-07-29 (49 years ago)
Launch vehicle
Unknown
Launch site
Air Force Western Test Range (AFWTR)
Object type
Payload
Rocket body
Debris
Shape & HBR
Unknown shape, 0.1 m
Radar Cross Section
Small (<0.1 m²)

Expand to show TLE details & history
Last TLE update: 1 month ago

TLE from 1 month ago
0 DELTA 1 DEB
1 40755U 76077FY  25301.86108069  .00000074  00000-0  83683-3 0  9999
2 40755 102.0226 274.9061 0015848 291.1107  68.8265 12.44982313954259
Epoch: 2025-10-28T20:39Z
TLE epoch observation values (Epoch: 2025-10-28T20:39:57.371Z)
Latitude
-0.00003°
Longitude
-72.52544°
Altitude
1,483.623 km
Speed
7.124 km/s
True Right ascension
18h 19m 37s
True Declination
0° 00' 00"
Sunlit
Object was in daylight at epoch
Visualization orbit readout
Latitude
Unknown
Longitude
Unknown
Altitude
Unknown
Speed
Unknown
Apparent Right ascension
Unknown
Apparent Declination
Unknown
Sunlit
N/A
Visualization observer readout
Local Sidereal Time
16:21:14
Azimuth
Unknown
Elevation
Unknown
Doppler factor
Unknown
Orbital elements
Apogee altitude
1,495.581 km
Perigee altitude
1,470.664 km
Semi-major axis
7,861.26 km
Eccentricity
0.00158
Inclination
102.0226°
RAAN
274.9061°
Arg. of periapsis
291.1107°
True anomaly
68.99597°
Mean anomaly
68.8265°
Eccentric anomaly
68.91122°
Mean motion
3.1139 °/min
Orbital period
115.61 mins
BSTAR
0.00083683
Loading maneuver chart data...
Computing Atmospheric mass density...
Loading historical data...
Loading historical data...
Loading historical data...
Loading historical data...
Loading historical data...
Loading historical data...
Loading historical data...

Documentation

Showing up to 5 results
|